Tracking 27401 objects as of 4-Jun-2023
HD Live streaming from Space Station
objects crossing your sky now

ONEWEB-0190

Track ONEWEB-0190 now!
10-day predictions
ONEWEB-0190 is classified as:


NORAD ID: 48796
Int'l Code: 2021-045AF
Perigee: 1,206.7 km
Apogee: 1,211.1 km
Inclination: 87.9 °
Period: 109.5 minutes
Semi major axis: 7579 km
RCS: Unknown
Launch date: May 28, 2021
Source: United Kingdom (UK)
Launch site: VOSTOCHNY COSMODROME (VOSTO)
Your satellite tracking list
Your tracking list is empty




NASA's NSSDC Master Catalog

Two Line Element Set (TLE):
1 48796U 21045AF  23154.40670967  .00000015  00000-0  49182-5 0  9995
2 48796  87.8999 120.1981 0002889  60.6636 299.4782 13.15550793 98458
Source of the keplerian elements: AFSPC